Content
SEND FEEDBACK

Daily
Averages
Monthly
Summary
United States of America

AGAT, GUAM


Home > North America > United States > Guam
Elevation: 364 feet     Latitude: 13 33N     Longitude: 144 50E

WEATHER
 
SELECT A DAY
Number of Records: 208,860;   Date Range: 1/1/95 - 7/20/14
 
SHARE

PRINT THIS DATA

[ ← Previous Day ]
WEATHER ALMANAC - OCTOBER 16, 2013
[ Next Day → ]
[ °C ]   °F
Weather ElementAverageHighLow
Temperature78.9 °F81 °F (12:54 am)75.2 °F (2:41 am)
Dewpoint75.6 °F78.8 °F (1:58 am)73.4 °F (3:04 am)
Humidity89.9 %100 % (2:41 am)79 % (3:54 pm)
Barometer29.71 in29.80 in (12:44 am)29.58 in (1:54 pm)
Wind Speed18.6 mph34.5 mph (1:54 pm)
Wind Gust41.4 mph (1:54 pm)
Weather ElementAverage
Visibility6.5 mi
Wind DirectionSSW (195.5 °)

Weather ElementTotal
Precipitation6.17 in
Cooling Degree Days13.1 (Base 65)
Growing Degree Days28.1 (Base 50)
Averaged from 55 records on October 16, 2013
WEATHER CONDITIONS BREAKOUT
WIND DIRECTION BREAKOUT
WEATHER BY HOUR - OCTOBER 16, 2013
[ °C ]   °F
Local TimeTemperatureDewpointHumidityBarometerVisibilityWind DirectionWind SpeedGust SpeedPrecipitationEventsConditions
12:44 AM80.6 °F75.2 °F84 %29.80 in10.0 miNW (310°)16.1 mph0.00 inRainLight Rain
12:54 AM81.0 °F77.0 °F88 %29.77 in9.0 miWNW (300°)18.4 mph24.2 mph0.00 inRainRain
1:54 AM80.1 °F78.1 °F94 %29.76 in5.0 miNW (320°)13.8 mph21.9 mph0.02 inRainRain
1:58 AM80.6 °F78.8 °F94 %29.77 in1.8 miNorth (350°)9.2 mph21.9 mph0.04 inRainHeavy Rain
2:09 AM78.8 °F77.0 °F94 %29.77 in2.0 miNorth (350°)12.7 mph18.4 mph0.27 inRainHeavy Rain
2:16 AM78.8 °F77.0 °F94 %29.76 in4.0 miNNW (330°)10.4 mph0.30 inRainRain
2:26 AM78.8 °F77.0 °F94 %29.76 in6.0 miNW (310°)10.4 mph0.31 inRainRain
2:34 AM77.0 °F75.2 °F94 %29.76 in2.0 miNW (310°)17.3 mph26.5 mph0.32 inRainLight Rain
2:41 AM75.2 °F75.2 °F100 %29.76 in1.8 miNW (310°)13.8 mph26.5 mph0.38 inRainHeavy Rain
2:54 AM77.0 °F75.9 °F96 %29.74 in2.0 miNW (310°)21.9 mph31.1 mph0.52 inRainRain
3:04 AM75.2 °F73.4 °F94 %29.76 in3.0 miNW (320°)18.4 mph36.8 mph0.02 inRainRain
3:54 AM78.1 °F75.9 °F93 %29.71 in10.0 miNW (320°)17.3 mph27.6 mph0.05 inRainLight Rain
4:21 AM77.0 °F75.2 °F94 %29.74 in7.0 miNW (310°)26.5 mph36.8 mph0.05 inRainLight Rain
4:24 AM77.0 °F75.2 °F94 %29.74 in1.5 miNW (310°)24.2 mph36.8 mph0.05 inRainHeavy Rain
4:36 AM77.0 °F75.2 °F94 %29.73 in3.0 miNW (310°)18.4 mph28.8 mph0.16 inRainRain
4:54 AM77.0 °F75.0 °F94 %29.71 in8.0 miNW (310°)20.7 mph27.6 mph0.20 inRainLight Rain
5:10 AM78.8 °F75.2 °F89 %29.74 in2.0 miNNW (330°)16.1 mph0.14 inRainHeavy Rain
5:25 AM77.0 °F77.0 °F100 %29.75 in2.0 miNNW (340°)21.9 mph31.1 mph0.51 inRainHeavy Rain
5:42 AM77.0 °F75.2 °F94 %29.75 in4.0 miNNW (340°)17.3 mph25.3 mph0.53 inRainRain
5:54 AM75.9 °F75.0 °F97 %29.73 in4.0 miNNW (330°)17.3 mph27.6 mph0.57 inRainLight Rain
6:17 AM75.2 °F75.2 °F100 %29.76 in1.5 miNNW (330°)24.2 mph38.0 mph0.18 inRainHeavy Rain
6:44 AM75.2 °F75.2 °F100 %29.74 in6.0 miNW (320°)13.8 mph27.6 mph0.33 inRainLight Rain
6:54 AM75.9 °F75.0 °F97 %29.71 in4.0 miNW (310°)18.4 mph28.8 mph0.33 inRainLight Rain
6:56 AM75.2 °F75.2 °F100 %29.73 in3.0 miNW (310°)17.3 mph28.8 mph0.01 inRainLight Rain
7:09 AM78.8 °F77.0 °F94 %29.73 in5.0 miNW (320°)20.7 mph27.6 mph0.04 inRainLight Rain
7:41 AM78.8 °F77.0 °F94 %29.74 in9.0 miNNW (330°)17.3 mph24.2 mph0.08 inRainLight Rain
7:54 AM79.0 °F78.1 °F97 %29.72 in6.0 miNNW (340°)18.4 mph27.6 mph0.08 inRainLight Rain
8:54 AM80.1 °F77.0 °F90 %29.70 in7.0 miNorth (10°)25.3 mph33.4 mph0.02 inRainLight Rain
9:47 AM80.6 °F77.0 °F89 %29.70 in10.0 miNorth (10°)18.4 mph28.8 mph0.01 inRainLight Rain
9:54 AM80.1 °F78.1 °F94 %29.68 in5.0 miNNE (20°)18.4 mph26.5 mphRainLight Rain
10:06 AM80.6 °F77.0 °F89 %29.69 in10.0 miNNE (20°)15.0 mph25.3 mph0.01 inMostly Cloudy
10:26 AM80.6 °F77.0 °F89 %29.69 in2.0 miNNE (20°)18.4 mph26.5 mph0.01 inRainRain
10:32 AM78.8 °F78.8 °F100 %29.69 in1.0 miNorth (10°)11.5 mph26.5 mph0.13 inRainHeavy Rain
10:52 AM78.8 °F77.0 °F94 %29.67 in4.0 miNNE (30°)11.5 mph0.23 inRainLight Rain
10:54 AM78.1 °F77.0 °F96 %29.65 in4.0 miNNE (30°)10.4 mph18.4 mph0.24 inRainLight Rain
11:05 AM78.8 °F77.0 °F94 %29.66 in6.0 miNNE (20°)12.7 mph20.7 mph0.00 inRainLight Rain
11:54 AM79.0 °F77.0 °F94 %29.61 in4.0 miEast (80°)21.9 mph28.8 mph0.03 inRainLight Rain
12:54 PM80.1 °F75.0 °F85 %29.59 in10.0 miENE (70°)27.6 mph36.8 mph0.00 inMostly Cloudy
1:54 PM81.0 °F75.0 °F82 %29.58 in10.0 miEast (80°)34.5 mph41.4 mph0.00 inOvercast
2:54 PM81.0 °F75.0 °F82 %29.60 in10.0 miEast (90°)31.1 mph40.3 mph0.00 inOvercast
3:54 PM81.0 °F73.9 °F79 %29.62 in10.0 miEast (100°)23.0 mph40.3 mphMostly Cloudy
4:13 PM80.6 °F73.4 °F79 %29.65 in10.0 miEast (100°)28.8 mph38.0 mphScattered Clouds
4:25 PM80.6 °F73.4 °F79 %29.66 in10.0 miEast (100°)24.2 mph35.7 mphMostly Cloudy
4:54 PM81.0 °F73.9 °F79 %29.65 in10.0 miEast (100°)20.7 mph34.5 mphMostly Cloudy
5:01 PM80.6 °F75.2 °F84 %29.67 in10.0 miEast (100°)21.9 mph29.9 mphMostly Cloudy
5:43 PM80.6 °F73.4 °F79 %29.68 in10.0 miESE (110°)23.0 mph33.4 mphMostly Cloudy
5:54 PM80.1 °F73.9 °F81 %29.68 in10.0 miESE (110°)24.2 mph35.7 mphMostly Cloudy
6:54 PM80.1 °F73.9 °F81 %29.68 in10.0 miESE (110°)20.7 mph32.2 mphScattered Clouds
7:34 PM80.6 °F75.2 °F84 %29.72 in10.0 miESE (110°)19.6 mph28.8 mphMostly Cloudy
7:54 PM81.0 °F73.9 °F79 %29.71 in10.0 miESE (110°)19.6 mph27.6 mphMostly Cloudy
8:47 PM80.6 °F73.4 °F79 %29.77 in10.0 miESE (110°)13.8 mph25.3 mph0.00 inPartly Cloudy
8:54 PM80.1 °F73.9 °F81 %29.75 in10.0 miESE (110°)13.8 mph25.3 mph0.00 inPartly Cloudy
9:54 PM80.1 °F75.0 °F85 %29.76 in10.0 miEast (100°)16.1 mph26.5 mph0.00 inRainLight Rain
10:54 PM80.1 °F73.9 °F81 %29.75 in10.0 miESE (110°)13.8 mph23.0 mph0.00 inScattered Clouds
11:54 PM80.1 °F73.9 °F81 %29.73 in10.0 miEast (100°)10.4 mph20.7 mphPartly Cloudy
Hourly data recorded from PGUM, located miles away from Agat, Guam







STORIES FROM OUR PARTNERS